Year,Month,Day,Hour,Minute,Value (Times are PST for temperature in C)
2016,07,20,00,00,18.90
2016,07,20,00,01,18.90
2016,07,20,00,02,18.90
2016,07,20,00,03,18.90
2016,07,20,00,04,18.90
2016,07,20,00,05,18.80
2016,07,20,00,06,18.80
2016,07,20,00,07,18.80
2016,07,20,00,08,18.80
2016,07,20,00,09,18.80
2016,07,20,00,10,18.80
2016,07,20,00,11,18.80
2016,07,20,00,12,18.80
2016,07,20,00,13,18.80
2016,07,20,00,14,18.80
2016,07,20,00,15,18.80
2016,07,20,00,16,18.70
2016,07,20,00,17,18.70
2016,07,20,00,18,18.70
2016,07,20,00,19,18.70
2016,07,20,00,20,18.70
2016,07,20,00,21,18.70
2016,07,20,00,22,18.70
2016,07,20,00,23,18.70
2016,07,20,00,24,18.70
2016,07,20,00,25,18.70
2016,07,20,00,26,18.70
2016,07,20,00,27,18.70
2016,07,20,00,28,18.70
2016,07,20,00,29,18.70
2016,07,20,00,30,18.70
2016,07,20,00,31,18.70
2016,07,20,00,32,18.70
2016,07,20,00,33,18.70
2016,07,20,00,34,18.70
2016,07,20,00,35,18.60
2016,07,20,00,36,18.60
2016,07,20,00,37,18.60
2016,07,20,00,38,18.60
2016,07,20,00,39,18.60
2016,07,20,00,40,18.60
2016,07,20,00,41,18.60
2016,07,20,00,42,18.60
2016,07,20,00,43,18.60
2016,07,20,00,44,18.60
2016,07,20,00,45,18.60
2016,07,20,00,46,18.50
2016,07,20,00,47,18.50
2016,07,20,00,48,18.50
2016,07,20,00,49,18.40
2016,07,20,00,50,18.40
2016,07,20,00,51,18.40
2016,07,20,00,52,18.40
2016,07,20,00,53,18.30
2016,07,20,00,54,18.30
2016,07,20,00,55,18.30
2016,07,20,00,56,18.30
2016,07,20,00,57,18.20
2016,07,20,00,58,18.20
2016,07,20,00,59,18.20
2016,07,20,01,00,18.20
2016,07,20,01,01,18.20
2016,07,20,01,02,18.20
2016,07,20,01,03,18.10
2016,07,20,01,04,18.10
2016,07,20,01,05,18.10
2016,07,20,01,06,18.00
2016,07,20,01,07,18.00
2016,07,20,01,08,17.90
2016,07,20,01,09,17.90
2016,07,20,01,10,17.90
2016,07,20,01,11,17.90
2016,07,20,01,12,17.80
2016,07,20,01,13,17.80
2016,07,20,01,14,17.80
2016,07,20,01,15,17.80
2016,07,20,01,16,17.80
2016,07,20,01,17,17.80
2016,07,20,01,18,17.70
2016,07,20,01,19,17.70
2016,07,20,01,20,17.70
2016,07,20,01,21,17.70
2016,07,20,01,22,17.70
2016,07,20,01,23,17.70
2016,07,20,01,24,17.70
2016,07,20,01,25,17.70
2016,07,20,01,26,17.60
2016,07,20,01,27,17.60
2016,07,20,01,28,17.60
2016,07,20,01,29,17.60
2016,07,20,01,30,17.60
2016,07,20,01,31,17.60
2016,07,20,01,32,17.50
2016,07,20,01,33,17.50
2016,07,20,01,34,17.40
2016,07,20,01,35,17.40
2016,07,20,01,36,17.40
2016,07,20,01,37,17.40
2016,07,20,01,38,17.40
2016,07,20,01,39,17.40
2016,07,20,01,40,17.40
2016,07,20,01,41,17.40
2016,07,20,01,42,17.40
2016,07,20,01,43,17.40
2016,07,20,01,44,17.40
2016,07,20,01,45,17.40
2016,07,20,01,46,17.40
2016,07,20,01,47,17.40
2016,07,20,01,48,17.30
2016,07,20,01,49,17.30
2016,07,20,01,50,17.30
2016,07,20,01,51,17.30
2016,07,20,01,52,17.30
2016,07,20,01,53,17.30
2016,07,20,01,54,17.30
2016,07,20,01,55,17.30
2016,07,20,01,56,17.30
2016,07,20,01,57,17.30
2016,07,20,01,58,17.30
2016,07,20,01,59,17.30
2016,07,20,02,00,17.30
2016,07,20,02,01,17.30
2016,07,20,02,02,17.20
2016,07,20,02,03,17.20
2016,07,20,02,04,17.20
2016,07,20,02,05,17.20
2016,07,20,02,06,17.20
2016,07,20,02,07,17.20
2016,07,20,02,08,17.20
2016,07,20,02,09,17.30
2016,07,20,02,10,17.20
2016,07,20,02,11,17.20
2016,07,20,02,12,17.20
2016,07,20,02,13,17.20
2016,07,20,02,14,17.20
2016,07,20,02,15,17.20
2016,07,20,02,16,17.20
2016,07,20,02,17,17.20
2016,07,20,02,18,17.20
2016,07,20,02,19,17.20
2016,07,20,02,20,17.20
2016,07,20,02,21,17.20
2016,07,20,02,22,17.10
2016,07,20,02,23,17.10
2016,07,20,02,24,17.10
2016,07,20,02,25,17.10
2016,07,20,02,26,17.10
2016,07,20,02,27,17.10
2016,07,20,02,28,17.10
2016,07,20,02,29,17.00
2016,07,20,02,30,17.00
2016,07,20,02,31,17.00
2016,07,20,02,32,17.00
2016,07,20,02,33,16.90
2016,07,20,02,34,16.90
2016,07,20,02,35,16.90
2016,07,20,02,36,16.90
2016,07,20,02,37,16.90
2016,07,20,02,38,16.90
2016,07,20,02,39,16.90
2016,07,20,02,40,16.90
2016,07,20,02,41,16.90
2016,07,20,02,42,16.90
2016,07,20,02,43,16.90
2016,07,20,02,44,16.90
2016,07,20,02,45,16.90
2016,07,20,02,46,16.90
2016,07,20,02,47,16.90
2016,07,20,02,48,16.90
2016,07,20,02,49,16.90
2016,07,20,02,50,16.90
2016,07,20,02,51,16.90
2016,07,20,02,52,16.90
2016,07,20,02,53,16.90
2016,07,20,02,54,16.90
2016,07,20,02,55,16.90
2016,07,20,02,56,16.90
2016,07,20,02,57,16.90
2016,07,20,02,58,16.90
2016,07,20,02,59,17.00
2016,07,20,03,00,17.00
2016,07,20,03,01,17.00
2016,07,20,03,02,17.00
2016,07,20,03,03,17.00
2016,07,20,03,04,17.00
2016,07,20,03,05,17.00
2016,07,20,03,06,17.00
2016,07,20,03,07,17.00
2016,07,20,03,08,17.00
2016,07,20,03,09,17.00
2016,07,20,03,10,17.00
2016,07,20,03,11,17.00
2016,07,20,03,12,17.00
2016,07,20,03,13,17.00
2016,07,20,03,14,17.00
2016,07,20,03,15,17.00
2016,07,20,03,16,17.00
2016,07,20,03,17,16.90
2016,07,20,03,18,16.90
2016,07,20,03,19,16.90
2016,07,20,03,20,16.90
2016,07,20,03,21,16.90
2016,07,20,03,22,16.90
2016,07,20,03,23,16.90
2016,07,20,03,24,16.90
2016,07,20,03,25,16.90
2016,07,20,03,26,16.90
2016,07,20,03,27,16.90
2016,07,20,03,28,16.90
2016,07,20,03,29,16.80
2016,07,20,03,30,16.80
2016,07,20,03,31,16.80
2016,07,20,03,32,16.80
2016,07,20,03,33,16.80
2016,07,20,03,34,16.80
2016,07,20,03,35,16.80
2016,07,20,03,36,16.80
2016,07,20,03,37,16.80
2016,07,20,03,38,16.80
2016,07,20,03,39,16.80
2016,07,20,03,40,16.80
2016,07,20,03,41,16.80
2016,07,20,03,42,16.80
2016,07,20,03,43,16.80
2016,07,20,03,44,16.80
2016,07,20,03,45,16.80
2016,07,20,03,46,16.80
2016,07,20,03,47,16.80
2016,07,20,03,48,16.70
2016,07,20,03,49,16.70
2016,07,20,03,50,16.70
2016,07,20,03,51,16.70
2016,07,20,03,52,16.70
2016,07,20,03,53,16.70
2016,07,20,03,54,16.60
2016,07,20,03,55,16.60
2016,07,20,03,56,16.60
2016,07,20,03,57,16.60
2016,07,20,03,58,16.60
2016,07,20,03,59,16.60
2016,07,20,04,00,16.60
2016,07,20,04,01,16.60
2016,07,20,04,02,16.60
2016,07,20,04,03,16.60
2016,07,20,04,04,16.50
2016,07,20,04,05,16.50
2016,07,20,04,06,16.50
2016,07,20,04,07,16.50
2016,07,20,04,08,16.50
2016,07,20,04,09,16.50
2016,07,20,04,10,16.50
2016,07,20,04,11,16.40
2016,07,20,04,12,16.40
2016,07,20,04,13,16.40
2016,07,20,04,14,16.40
2016,07,20,04,15,16.30
2016,07,20,04,16,16.30
2016,07,20,04,17,16.30
2016,07,20,04,18,16.30
2016,07,20,04,19,16.30
2016,07,20,04,20,16.30
2016,07,20,04,21,16.20
2016,07,20,04,22,16.20
2016,07,20,04,23,16.20
2016,07,20,04,24,16.20
2016,07,20,04,25,16.20
2016,07,20,04,26,16.20
2016,07,20,04,27,16.10
2016,07,20,04,28,16.10
2016,07,20,04,29,16.00
2016,07,20,04,30,16.00
2016,07,20,04,31,16.00
2016,07,20,04,32,15.90
2016,07,20,04,33,15.90
2016,07,20,04,34,15.90
2016,07,20,04,35,15.80
2016,07,20,04,36,15.80
2016,07,20,04,37,15.80
2016,07,20,04,38,15.80
2016,07,20,04,39,15.80
2016,07,20,04,40,15.70
2016,07,20,04,41,15.70
2016,07,20,04,42,15.70
2016,07,20,04,43,15.70
2016,07,20,04,44,15.70
2016,07,20,04,45,15.70
2016,07,20,04,46,15.70
2016,07,20,04,47,15.70
2016,07,20,04,48,15.70
2016,07,20,04,49,15.70
2016,07,20,04,50,15.60
2016,07,20,04,51,15.60
2016,07,20,04,52,15.60
2016,07,20,04,53,15.60
2016,07,20,04,54,15.60
2016,07,20,04,55,15.60
2016,07,20,04,56,15.60
2016,07,20,04,57,15.60
2016,07,20,04,58,15.60
2016,07,20,04,59,15.60
2016,07,20,05,00,15.60
2016,07,20,05,01,15.60
2016,07,20,05,02,15.60
2016,07,20,05,03,15.60
2016,07,20,05,04,15.60
2016,07,20,05,05,15.60
2016,07,20,05,06,15.60
2016,07,20,05,07,15.60
2016,07,20,05,08,15.60
2016,07,20,05,09,15.60
2016,07,20,05,10,15.60
2016,07,20,05,11,15.60
2016,07,20,05,12,15.60
2016,07,20,05,13,15.60
2016,07,20,05,14,15.60
2016,07,20,05,15,15.70
2016,07,20,05,16,15.70
2016,07,20,05,17,15.70
2016,07,20,05,18,15.60
2016,07,20,05,19,15.60
2016,07,20,05,20,15.70
2016,07,20,05,21,15.70
2016,07,20,05,22,15.70
2016,07,20,05,23,15.70
2016,07,20,05,24,15.70
2016,07,20,05,25,15.70
2016,07,20,05,26,15.70
2016,07,20,05,27,15.70
2016,07,20,05,28,15.70
2016,07,20,05,29,15.70
2016,07,20,05,30,15.70
2016,07,20,05,31,15.70
2016,07,20,05,32,15.70
2016,07,20,05,33,15.70
2016,07,20,05,34,15.70
2016,07,20,05,35,15.70
2016,07,20,05,36,15.70
2016,07,20,05,37,15.70
2016,07,20,05,38,15.70
2016,07,20,05,39,15.70
2016,07,20,05,40,15.70
2016,07,20,05,41,15.70
2016,07,20,05,42,15.70
2016,07,20,05,43,15.70
2016,07,20,05,44,15.70
2016,07,20,05,45,15.70
2016,07,20,05,46,15.70
2016,07,20,05,47,15.70
2016,07,20,05,48,15.70
2016,07,20,05,49,15.70
2016,07,20,05,50,15.70
2016,07,20,05,51,15.70
2016,07,20,05,52,15.70
2016,07,20,05,53,15.70
2016,07,20,05,54,15.70
2016,07,20,05,55,15.70
2016,07,20,05,56,15.70
2016,07,20,05,57,15.70
2016,07,20,05,58,15.70
2016,07,20,05,59,15.60
2016,07,20,06,00,15.60
2016,07,20,06,01,15.70
2016,07,20,06,02,15.70
2016,07,20,06,03,15.70
2016,07,20,06,04,15.70
2016,07,20,06,05,15.70
2016,07,20,06,06,15.70
2016,07,20,06,07,15.70
2016,07,20,06,08,15.70
2016,07,20,06,09,15.70
2016,07,20,06,10,15.80
2016,07,20,06,11,15.80
2016,07,20,06,12,15.80
2016,07,20,06,13,15.80
2016,07,20,06,14,15.90
2016,07,20,06,15,15.90
2016,07,20,06,16,15.90
2016,07,20,06,17,15.90
2016,07,20,06,18,16.00
2016,07,20,06,19,16.00
2016,07,20,06,20,16.00
2016,07,20,06,21,16.10
2016,07,20,06,22,16.10
2016,07,20,06,23,16.20
2016,07,20,06,24,16.20
2016,07,20,06,25,16.20
2016,07,20,06,26,16.20
2016,07,20,06,27,16.30
2016,07,20,06,28,16.30
2016,07,20,06,29,16.30
2016,07,20,06,30,16.40
2016,07,20,06,31,16.40
2016,07,20,06,32,16.40
2016,07,20,06,33,16.40
2016,07,20,06,34,16.40
2016,07,20,06,35,16.50
2016,07,20,06,36,16.50
2016,07,20,06,37,16.50
2016,07,20,06,38,16.60
2016,07,20,06,39,16.60
2016,07,20,06,40,16.60
2016,07,20,06,41,16.60
2016,07,20,06,42,16.60
2016,07,20,06,43,16.60
2016,07,20,06,44,16.60
2016,07,20,06,45,16.60
2016,07,20,06,46,16.60
2016,07,20,06,47,16.60
2016,07,20,06,48,16.60
2016,07,20,06,49,16.60
2016,07,20,06,50,16.50
2016,07,20,06,51,16.50
2016,07,20,06,52,16.50
2016,07,20,06,53,16.50
2016,07,20,06,54,16.50
2016,07,20,06,55,16.50
2016,07,20,06,56,16.40
2016,07,20,06,57,16.40
2016,07,20,06,58,16.40
2016,07,20,06,59,16.40
2016,07,20,07,00,16.40
2016,07,20,07,01,16.40
2016,07,20,07,02,16.40
2016,07,20,07,03,16.40
2016,07,20,07,04,16.40
2016,07,20,07,05,16.40
2016,07,20,07,06,16.40
2016,07,20,07,07,16.40
2016,07,20,07,08,16.40
2016,07,20,07,09,16.40
2016,07,20,07,10,16.30
2016,07,20,07,11,16.30
2016,07,20,07,12,16.30
2016,07,20,07,13,16.30
2016,07,20,07,14,16.30
2016,07,20,07,15,16.30
2016,07,20,07,16,16.30
2016,07,20,07,17,16.30
2016,07,20,07,18,16.40
2016,07,20,07,19,16.40
2016,07,20,07,20,16.40
2016,07,20,07,21,16.40
2016,07,20,07,22,16.40
2016,07,20,07,23,16.40
2016,07,20,07,24,16.40
2016,07,20,07,25,16.40
2016,07,20,07,26,16.40
2016,07,20,07,27,16.40
2016,07,20,07,28,16.50
2016,07,20,07,29,16.50
2016,07,20,07,30,16.50
2016,07,20,07,31,16.60
2016,07,20,07,32,16.60
2016,07,20,07,33,16.60
2016,07,20,07,34,16.70
2016,07,20,07,35,16.70
2016,07,20,07,36,16.70
2016,07,20,07,37,16.70
2016,07,20,07,38,16.80
2016,07,20,07,39,16.80
2016,07,20,07,40,16.80
2016,07,20,07,41,16.90
2016,07,20,07,42,16.90
2016,07,20,07,43,16.90
2016,07,20,07,44,17.00
2016,07,20,07,45,17.00
2016,07,20,07,46,17.10
2016,07,20,07,47,17.10
2016,07,20,07,48,17.10
2016,07,20,07,49,17.20
2016,07,20,07,50,17.20
2016,07,20,07,51,17.20
2016,07,20,07,52,17.30
2016,07,20,07,53,17.30
2016,07,20,07,54,17.30
2016,07,20,07,55,17.40
2016,07,20,07,56,17.40
2016,07,20,07,57,17.40
2016,07,20,07,58,17.50
2016,07,20,07,59,17.60
2016,07,20,08,00,17.60
2016,07,20,08,01,17.60
2016,07,20,08,02,17.70
2016,07,20,08,03,17.70
2016,07,20,08,04,17.70
2016,07,20,08,05,17.70
2016,07,20,08,06,17.80
2016,07,20,08,07,17.80
2016,07,20,08,08,17.80
2016,07,20,08,09,17.80
2016,07,20,08,10,17.80
2016,07,20,08,11,17.80
2016,07,20,08,12,17.80
2016,07,20,08,13,17.80
2016,07,20,08,14,17.80
2016,07,20,08,15,17.80
2016,07,20,08,16,17.70
2016,07,20,08,17,17.70
2016,07,20,08,18,17.70
2016,07,20,08,19,17.70
2016,07,20,08,20,17.70
2016,07,20,08,21,17.80
2016,07,20,08,22,17.80
2016,07,20,08,23,17.80
2016,07,20,08,24,17.80
2016,07,20,08,25,17.90
2016,07,20,08,26,17.90
2016,07,20,08,27,18.00
2016,07,20,08,28,18.00
2016,07,20,08,29,18.00
2016,07,20,08,30,18.00
2016,07,20,08,31,18.00
2016,07,20,08,32,18.00
2016,07,20,08,33,18.00
2016,07,20,08,34,18.00
2016,07,20,08,35,18.00
2016,07,20,08,36,18.10
2016,07,20,08,37,18.10
2016,07,20,08,38,18.10
2016,07,20,08,39,18.10
2016,07,20,08,40,18.10
2016,07,20,08,41,18.10
2016,07,20,08,42,18.10
2016,07,20,08,43,18.10
2016,07,20,08,44,18.10
2016,07,20,08,45,18.10
2016,07,20,08,46,18.10
2016,07,20,08,47,18.10
2016,07,20,08,48,18.10
2016,07,20,08,49,18.20
2016,07,20,08,50,18.20
2016,07,20,08,51,18.20
2016,07,20,08,52,18.30
2016,07,20,08,53,18.30
2016,07,20,08,54,18.40
2016,07,20,08,55,18.40
2016,07,20,08,56,18.50
2016,07,20,08,57,18.60
2016,07,20,08,58,18.60
2016,07,20,08,59,18.70
2016,07,20,09,00,18.80
2016,07,20,09,01,18.80
2016,07,20,09,02,18.90
2016,07,20,09,03,19.00
2016,07,20,09,04,19.00
2016,07,20,09,05,19.10
2016,07,20,09,06,19.20
2016,07,20,09,07,19.20
2016,07,20,09,08,19.30
2016,07,20,09,09,19.30
2016,07,20,09,10,19.30
2016,07,20,09,11,19.40
2016,07,20,09,12,19.50
2016,07,20,09,13,19.60
2016,07,20,09,14,19.70
2016,07,20,09,15,19.80
2016,07,20,09,16,19.80
2016,07,20,09,17,19.80
2016,07,20,09,18,19.80
2016,07,20,09,19,19.80
2016,07,20,09,20,19.80
2016,07,20,09,21,19.80
2016,07,20,09,22,19.80
2016,07,20,09,23,19.80
2016,07,20,09,24,19.80
2016,07,20,09,25,19.80
2016,07,20,09,26,19.80
2016,07,20,09,27,19.90
2016,07,20,09,28,19.90
2016,07,20,09,29,20.00
2016,07,20,09,30,20.00
2016,07,20,09,31,20.10
2016,07,20,09,32,20.10
2016,07,20,09,33,20.10
2016,07,20,09,34,20.20
2016,07,20,09,35,20.30
2016,07,20,09,36,20.40
2016,07,20,09,37,20.50
2016,07,20,09,38,20.50
2016,07,20,09,39,20.50
2016,07,20,09,40,20.50
2016,07,20,09,41,20.50
2016,07,20,09,42,20.60
2016,07,20,09,43,20.60
2016,07,20,09,44,20.70
2016,07,20,09,45,20.80
2016,07,20,09,46,20.90
2016,07,20,09,47,21.00
2016,07,20,09,48,21.10
2016,07,20,09,49,21.20
2016,07,20,09,50,21.20
2016,07,20,09,51,21.20
2016,07,20,09,52,21.30
2016,07,20,09,53,21.30
2016,07,20,09,54,21.30
2016,07,20,09,55,21.20
2016,07,20,09,56,21.20
2016,07,20,09,57,21.20
2016,07,20,09,58,21.20
2016,07,20,09,59,21.20
2016,07,20,10,00,21.20
2016,07,20,10,01,21.10
2016,07,20,10,02,21.10
2016,07,20,10,03,21.00
2016,07,20,10,04,20.90
2016,07,20,10,05,20.90
2016,07,20,10,06,20.90
2016,07,20,10,07,20.90
2016,07,20,10,08,20.90
2016,07,20,10,09,20.90
2016,07,20,10,10,20.90
2016,07,20,10,11,20.90
2016,07,20,10,12,20.90
2016,07,20,10,13,20.90
2016,07,20,10,14,20.90
2016,07,20,10,15,20.90
2016,07,20,10,16,21.00
2016,07,20,10,17,21.00
2016,07,20,10,18,21.00
2016,07,20,10,19,21.00
2016,07,20,10,20,21.00
2016,07,20,10,21,21.00
2016,07,20,10,22,20.90
2016,07,20,10,23,21.00
2016,07,20,10,24,21.00
2016,07,20,10,25,20.90
2016,07,20,10,26,20.90
2016,07,20,10,27,21.00
2016,07,20,10,28,21.10
2016,07,20,10,29,21.10
2016,07,20,10,30,21.00
2016,07,20,10,31,21.00
2016,07,20,10,32,20.90
2016,07,20,10,33,20.90
2016,07,20,10,34,20.80
2016,07,20,10,35,20.80
2016,07,20,10,36,20.80
2016,07,20,10,37,20.70
2016,07,20,10,38,20.60
2016,07,20,10,39,20.60
2016,07,20,10,40,20.60
2016,07,20,10,41,20.70
2016,07,20,10,42,20.70
2016,07,20,10,43,20.60
2016,07,20,10,44,20.70
2016,07,20,10,45,20.70
2016,07,20,10,46,20.70
2016,07,20,10,47,20.70
2016,07,20,10,48,20.80
2016,07,20,10,49,20.90
2016,07,20,10,50,21.00
2016,07,20,10,51,21.20
2016,07,20,10,52,21.20
2016,07,20,10,53,21.10
2016,07,20,10,54,21.10
2016,07,20,10,55,21.00
2016,07,20,10,56,21.00
2016,07,20,10,57,20.90
2016,07,20,10,58,20.90
2016,07,20,10,59,20.80
2016,07,20,11,00,20.70
2016,07,20,11,01,20.70
2016,07,20,11,02,20.80
2016,07,20,11,03,20.90
2016,07,20,11,04,20.90
2016,07,20,11,05,21.00
2016,07,20,11,06,21.10
2016,07,20,11,07,21.20
2016,07,20,11,08,21.20
2016,07,20,11,09,21.20
2016,07,20,11,10,21.30
2016,07,20,11,11,21.20
2016,07,20,11,12,21.20
2016,07,20,11,13,21.20
2016,07,20,11,14,21.10
2016,07,20,11,15,21.10
2016,07,20,11,16,21.00
2016,07,20,11,17,21.00
2016,07,20,11,18,21.00
2016,07,20,11,19,20.90
2016,07,20,11,20,20.90
2016,07,20,11,21,20.90
2016,07,20,11,22,20.90
2016,07,20,11,23,20.90
2016,07,20,11,24,20.90
2016,07,20,11,25,20.80
2016,07,20,11,26,20.90
2016,07,20,11,27,20.90
2016,07,20,11,28,20.90
2016,07,20,11,29,20.80
2016,07,20,11,30,20.90
2016,07,20,11,31,20.90
2016,07,20,11,32,20.90
2016,07,20,11,33,20.90
2016,07,20,11,34,21.00
2016,07,20,11,35,21.10
2016,07,20,11,36,21.10
2016,07,20,11,37,21.20
2016,07,20,11,38,21.30
2016,07,20,11,39,21.30
2016,07,20,11,40,21.30
2016,07,20,11,41,21.20
2016,07,20,11,42,21.20
2016,07,20,11,43,21.10
2016,07,20,11,44,21.10
2016,07,20,11,45,21.00
2016,07,20,11,46,21.00
2016,07,20,11,47,21.10
2016,07,20,11,48,21.20
2016,07,20,11,49,21.20
2016,07,20,11,50,21.30
2016,07,20,11,51,21.30
2016,07,20,11,52,21.30
2016,07,20,11,53,21.40
2016,07,20,11,54,21.40
2016,07,20,11,55,21.40
2016,07,20,11,56,21.50
2016,07,20,11,57,21.50
2016,07,20,11,58,21.50
2016,07,20,11,59,21.40
2016,07,20,12,00,21.40
2016,07,20,12,01,21.30
2016,07,20,12,02,21.20
2016,07,20,12,03,21.10
2016,07,20,12,04,21.20
2016,07,20,12,05,21.20
2016,07,20,12,06,21.30
2016,07,20,12,07,21.20
2016,07,20,12,08,21.20
2016,07,20,12,09,21.30
2016,07,20,12,10,21.40
2016,07,20,12,11,21.40
2016,07,20,12,12,21.40
2016,07,20,12,13,21.50
2016,07,20,12,14,21.50
2016,07,20,12,15,21.60
2016,07,20,12,16,21.50
2016,07,20,12,17,21.30
2016,07,20,12,18,21.20
2016,07,20,12,19,21.20
2016,07,20,12,20,21.20
2016,07,20,12,21,21.10
2016,07,20,12,22,21.10
2016,07,20,12,23,21.20
2016,07,20,12,24,21.10
2016,07,20,12,25,21.10
2016,07,20,12,26,21.20
2016,07,20,12,27,21.30
2016,07,20,12,28,21.40
2016,07,20,12,29,21.40
2016,07,20,12,30,21.40
2016,07,20,12,31,21.40
2016,07,20,12,32,21.40
2016,07,20,12,33,21.50
2016,07,20,12,34,21.50
2016,07,20,12,35,21.60
2016,07,20,12,36,21.70
2016,07,20,12,37,21.70
2016,07,20,12,38,21.70
2016,07,20,12,39,21.60
2016,07,20,12,40,21.60
2016,07,20,12,41,21.60
2016,07,20,12,42,21.60
2016,07,20,12,43,21.50
2016,07,20,12,44,21.50
2016,07,20,12,45,21.40
2016,07,20,12,46,21.30
2016,07,20,12,47,21.30
2016,07,20,12,48,21.40
2016,07,20,12,49,21.50
2016,07,20,12,50,21.60
2016,07,20,12,51,21.60
2016,07,20,12,52,21.60
2016,07,20,12,53,21.50
2016,07,20,12,54,21.50
2016,07,20,12,55,21.40
2016,07,20,12,56,21.40
2016,07,20,12,57,21.50
2016,07,20,12,58,21.60
2016,07,20,12,59,21.70
2016,07,20,13,00,21.80
2016,07,20,13,01,21.80
2016,07,20,13,02,21.90
2016,07,20,13,03,21.90
2016,07,20,13,04,22.00
2016,07,20,13,05,22.00
2016,07,20,13,06,22.10
2016,07,20,13,07,22.20
2016,07,20,13,08,22.20
2016,07,20,13,09,22.30
2016,07,20,13,10,22.40
2016,07,20,13,11,22.40
2016,07,20,13,12,22.40
2016,07,20,13,13,22.30
2016,07,20,13,14,22.30
2016,07,20,13,15,22.30
2016,07,20,13,16,22.20
2016,07,20,13,17,22.10
2016,07,20,13,18,22.10
2016,07,20,13,19,22.00
2016,07,20,13,20,21.90
2016,07,20,13,21,21.90
2016,07,20,13,22,21.80
2016,07,20,13,23,21.90
2016,07,20,13,24,22.00
2016,07,20,13,25,22.00
2016,07,20,13,26,22.00
2016,07,20,13,27,22.00
2016,07,20,13,28,21.90
2016,07,20,13,29,21.80
2016,07,20,13,30,21.80
2016,07,20,13,31,21.80
2016,07,20,13,32,21.80
2016,07,20,13,33,21.70
2016,07,20,13,34,21.70
2016,07,20,13,35,21.70
2016,07,20,13,36,21.70
2016,07,20,13,37,21.80
2016,07,20,13,38,21.70
2016,07,20,13,39,21.70
2016,07,20,13,40,21.80
2016,07,20,13,41,21.80
2016,07,20,13,42,21.80
2016,07,20,13,43,21.80
2016,07,20,13,44,21.80
2016,07,20,13,45,21.80
2016,07,20,13,46,21.90
2016,07,20,13,47,22.00
2016,07,20,13,48,22.00
2016,07,20,13,49,22.10
2016,07,20,13,50,22.10
2016,07,20,13,51,22.10
2016,07,20,13,52,22.10
2016,07,20,13,53,21.90
2016,07,20,13,54,21.80
2016,07,20,13,55,21.80
2016,07,20,13,56,21.70
2016,07,20,13,57,21.70
2016,07,20,13,58,21.70
2016,07,20,13,59,21.60
2016,07,20,14,00,21.60
2016,07,20,14,01,21.50
2016,07,20,14,02,21.60
2016,07,20,14,03,21.60
2016,07,20,14,04,21.70
2016,07,20,14,05,21.80
2016,07,20,14,06,21.80
2016,07,20,14,07,21.80
2016,07,20,14,08,21.80
2016,07,20,14,09,21.70
2016,07,20,14,10,21.60
2016,07,20,14,11,21.70
2016,07,20,14,12,21.70
2016,07,20,14,13,21.70
2016,07,20,14,14,21.60
2016,07,20,14,15,21.50
2016,07,20,14,16,21.30
2016,07,20,14,17,21.30
2016,07,20,14,18,21.30
2016,07,20,14,19,21.30
2016,07,20,14,20,21.30
2016,07,20,14,21,21.40
2016,07,20,14,22,21.50
2016,07,20,14,23,21.50
2016,07,20,14,24,21.60
2016,07,20,14,25,21.70
2016,07,20,14,26,21.60
2016,07,20,14,27,21.50
2016,07,20,14,28,21.50
2016,07,20,14,29,21.60
2016,07,20,14,30,21.70
2016,07,20,14,31,21.80
2016,07,20,14,32,21.70
2016,07,20,14,33,21.80
2016,07,20,14,34,21.80
2016,07,20,14,35,21.80
2016,07,20,14,36,21.80
2016,07,20,14,37,21.80
2016,07,20,14,38,21.80
2016,07,20,14,39,21.80
2016,07,20,14,40,21.80
2016,07,20,14,41,21.80
2016,07,20,14,42,21.80
2016,07,20,14,43,21.80
2016,07,20,14,44,21.90
2016,07,20,14,45,21.90
2016,07,20,14,46,21.90
2016,07,20,14,47,22.00
2016,07,20,14,48,22.10
2016,07,20,14,49,22.00
2016,07,20,14,50,22.00
2016,07,20,14,51,22.00
2016,07,20,14,52,21.90
2016,07,20,14,53,21.90
2016,07,20,14,54,21.90
2016,07,20,14,55,21.80
2016,07,20,14,56,21.80
2016,07,20,14,57,21.90
2016,07,20,14,58,22.00
2016,07,20,14,59,22.00
2016,07,20,15,00,22.10
2016,07,20,15,01,22.10
2016,07,20,15,02,22.10
2016,07,20,15,03,22.20
2016,07,20,15,04,22.20
2016,07,20,15,05,22.20
2016,07,20,15,06,22.20
2016,07,20,15,07,22.20
2016,07,20,15,08,22.20
2016,07,20,15,09,22.10
2016,07,20,15,10,22.10
2016,07,20,15,11,22.20
2016,07,20,15,12,22.20
2016,07,20,15,13,22.20
2016,07,20,15,14,22.20
2016,07,20,15,15,22.20
2016,07,20,15,16,22.20
2016,07,20,15,17,22.20
2016,07,20,15,18,22.20
2016,07,20,15,19,22.20
2016,07,20,15,20,22.20
2016,07,20,15,21,22.20
2016,07,20,15,22,22.20
2016,07,20,15,23,22.20
2016,07,20,15,24,22.20
2016,07,20,15,25,22.10
2016,07,20,15,26,22.10
2016,07,20,15,27,22.10
2016,07,20,15,28,22.10
2016,07,20,15,29,22.10
2016,07,20,15,30,22.20
2016,07,20,15,31,22.20
2016,07,20,15,32,22.20
2016,07,20,15,33,22.20
2016,07,20,15,34,22.20
2016,07,20,15,35,22.20
2016,07,20,15,36,22.30
2016,07,20,15,37,22.40
2016,07,20,15,38,22.40
2016,07,20,15,39,22.40
2016,07,20,15,40,22.40
2016,07,20,15,41,22.40
2016,07,20,15,42,22.40
2016,07,20,15,43,22.40
2016,07,20,15,44,22.40
2016,07,20,15,45,22.30
2016,07,20,15,46,22.30
2016,07,20,15,47,22.20
2016,07,20,15,48,22.10
2016,07,20,15,49,22.00
2016,07,20,15,50,21.90
2016,07,20,15,51,21.90
2016,07,20,15,52,21.90
2016,07,20,15,53,21.90
2016,07,20,15,54,22.00
2016,07,20,15,55,22.10
2016,07,20,15,56,22.20
2016,07,20,15,57,22.20
2016,07,20,15,58,22.30
2016,07,20,15,59,22.40
2016,07,20,16,00,22.40
2016,07,20,16,01,22.50
2016,07,20,16,02,22.50
2016,07,20,16,03,22.60
2016,07,20,16,04,22.60
2016,07,20,16,05,22.60
2016,07,20,16,06,22.70
2016,07,20,16,07,22.70
2016,07,20,16,08,22.70
2016,07,20,16,09,22.70
2016,07,20,16,10,22.70
2016,07,20,16,11,22.60
2016,07,20,16,12,22.60
2016,07,20,16,13,22.60
2016,07,20,16,14,22.60
2016,07,20,16,15,22.60
2016,07,20,16,16,22.50
2016,07,20,16,17,22.60
2016,07,20,16,18,22.60
2016,07,20,16,19,22.60
2016,07,20,16,20,22.60
2016,07,20,16,21,22.70
2016,07,20,16,22,22.70
2016,07,20,16,23,22.70
2016,07,20,16,24,22.80
2016,07,20,16,25,22.80
2016,07,20,16,26,22.80
2016,07,20,16,27,22.80
2016,07,20,16,28,22.80
2016,07,20,16,29,22.80
2016,07,20,16,30,22.70
2016,07,20,16,31,22.70
2016,07,20,16,32,22.70
2016,07,20,16,33,22.50
2016,07,20,16,34,22.50
2016,07,20,16,35,22.50
2016,07,20,16,36,22.50
2016,07,20,16,37,22.70
2016,07,20,16,38,22.80
2016,07,20,16,39,22.80
2016,07,20,16,40,22.80
2016,07,20,16,41,22.80
2016,07,20,16,42,22.70
2016,07,20,16,43,22.70
2016,07,20,16,44,22.60
2016,07,20,16,45,22.70
2016,07,20,16,46,22.60
2016,07,20,16,47,22.60
2016,07,20,16,48,22.60
2016,07,20,16,49,22.50
2016,07,20,16,50,22.40
2016,07,20,16,51,22.30
2016,07,20,16,52,22.30
2016,07,20,16,53,22.30
2016,07,20,16,54,22.40
2016,07,20,16,55,22.40
2016,07,20,16,56,22.50
2016,07,20,16,57,22.60
2016,07,20,16,58,22.60
2016,07,20,16,59,22.70
2016,07,20,17,00,22.70
2016,07,20,17,01,22.70
2016,07,20,17,02,22.80
2016,07,20,17,03,22.80
2016,07,20,17,04,22.80
2016,07,20,17,05,22.80
2016,07,20,17,06,22.90
2016,07,20,17,07,22.90
2016,07,20,17,08,22.90
2016,07,20,17,09,22.90
2016,07,20,17,10,22.80
2016,07,20,17,11,22.80
2016,07,20,17,12,22.70
2016,07,20,17,13,22.60
2016,07,20,17,14,22.60
2016,07,20,17,15,22.60
2016,07,20,17,16,22.50
2016,07,20,17,17,22.50
2016,07,20,17,18,22.60
2016,07,20,17,19,22.50